Regional Weather Roundup
Issued by NWS

Home | Current Version | Previous Version | Text Only | Print | Product List | Glossary On
Versions: 1 2 3 4 5 6 7 8 9 10 11 12 13 14 15 16 17 18 19 20 21 22 23 24 25 26 27 28 29 30 31 32 33 34 35 36 37 38 39 40 41 42 43 44 45 46 47 48 49 50
000
ASUS43 KOAX 211602
RWRNE

WEATHER ROUNDUP FOR NEBRASKA
NATIONAL WEATHER SERVICE OMAHA NE
1000 AM CST SUN DEC 21 2014

NOTES: SATELLITE DATA IS BEING USED TO AUGMENT CLOUD COVER ABOVE
       12000 FEET.
       "FAIR" INDICATES FEW OR NO CLOUDS BELOW 12,000 FEET WITH NO
       SIGNIFICANT WEATHER AND/OR OBSTRUCTIONS TO VISIBILITY.

  * THESE STATIONS DO NOT REPORT WEATHER SUCH AS RAIN...SNOW OR FOG.

NEZ001>004-019>022-054>056-211700-
NEBRASKA PANHANDLE

CITY           SKY/WX    TMP DP  RH WIND       PRES   REMARKS
SCOTTSBLUFF    PTSUNNY   32  22  66 S8        29.61F WCI  25
ALLIANCE       SUNNY     36  24  62 SW15      29.59F WCI  27
CHADRON        SUNNY     31  26  82 CALM      29.54F
SIDNEY         PTSUNNY   32  24  72 SW14      29.65F WCI  22
$$

NEZ057>060-069>072-079>082-211700-
SOUTHWEST NEBRASKA

CITY           SKY/WX    TMP DP  RH WIND       PRES   REMARKS
NORTH PLATTE   SUNNY     31  27  85 E5        29.68F WCI  26
IMPERIAL       SUNNY     32  26  78 S6        29.69F WCI  26
LEXINGTON      SUNNY     37  33  85 SE5       29.73F WCI  33
MCCOOK         SUNNY     35  30  82 S3        29.73F
$$

NEZ005>010-023>029-035>040-094-211700-
NORTH CENTRAL NEBRASKA

CITY           SKY/WX    TMP DP  RH WIND       PRES   REMARKS
VALENTINE      SUNNY     31  25  78 CALM      29.61F
AINSWORTH      SUNNY     34  26  71 SW12      29.62F WCI  25
BROKEN BOW     SUNNY     32  29  88 CALM      29.70F
$$

NEZ041-046>049-061>064-073>077-083>087-211700-
SOUTH CENTRAL NEBRASKA

CITY           SKY/WX    TMP DP  RH WIND       PRES   REMARKS
GRAND ISLAND   PTSUNNY   35  34  96 S16       29.77F FOG     WCI  25
AURORA         CLOUDY    35  35 100 S18       29.78F FOG     WCI  25
HASTINGS       FOG       34  33  96 S12G22    29.77F VSB 1   WCI  25
KEARNEY *      MOSUNNY   34  30  86 S14       29.75F WCI  24
$$

NEZ011>018-030>034-042>045-211700-
NORTHEAST NEBRASKA

CITY           SKY/WX    TMP DP  RH WIND       PRES   REMARKS
NORFOLK        CLOUDY    37  34  89 S12G18    29.75S FOG     WCI  29
BLAIR          CLOUDY    40  37  91 S16       29.83F FOG     WCI  31
COLUMBUS *     CLOUDY    37  34  87 S14       29.81S WCI  29
TEKAMAH        CLOUDY    41  38  89 S18G24    29.83F
$$

NEZ050>053-065>068-078-088>093-211700-
SOUTHEAST NEBRASKA

CITY           SKY/WX    TMP DP  RH WIND       PRES   REMARKS
LINCOLN        CLOUDY    39  37  92 S15G23    29.86F FOG     WCI  31
OMAHA EPPLEY   CLOUDY    39  37  92 S20       29.87F FOG     WCI  29
BEATRICE       CLOUDY    39  38  95 S15       29.87F FOG     WCI  31
FALLS CITY     CLOUDY    39  36  89 S16       29.93F WCI  30
NEBRASKA CITY  CLOUDY    39  39 100 S15       29.90R FOG     WCI  30
$$

NEZ044-045-051>053-067-211700-
OMAHA AREA

CITY           SKY/WX    TMP DP  RH WIND       PRES   REMARKS
OMAHA EPPLEY   CLOUDY    39  37  92 S20       29.87F FOG     WCI  29
BLAIR          CLOUDY    40  37  91 S16       29.83F FOG     WCI  31
OFFUTT AFB     CLOUDY    39  37  91 S12       29.87F WCI  32
WAHOO          CLOUDY    40  36  87 S15       29.83F WCI  31
$$



USA.gov is the U.S. government's official web portal to all federal, state and local government web resources and services.